World > North America > United States > New York

Holbrook, New York Regional Weather

Lat: 40.79N, Lon: 73.07W
Wx Zone: NYZ080
Warning NWS WEATHER ALERT - HIGH WIND WARNING (More Info. Click Here) Warning
Feedback

Holbrook, NY Regional Weather

Expires:201910171700;;850460
ASUS41 KOKX 171614
RWROKX

Regional Weather Roundup
National Weather Service New York NY
1200 PM EDT THU OCT 17 2019

Note: "FAIR" indicates few or no clouds below 12,000 feet with no
significant weather and/or obstructions to visibility.


NYZ177-179-078>081-171700-
Long Island New York
  
CITY           SKY/WX    TMP DP  RH WIND       PRES   REMARKS
Jones Beach      N/A     55 N/A N/A W24G36      N/A                   
Wantagh          N/A     57  39  51 W24G40      N/A                   
Hempstead        N/A     55  41  58 SW18      29.34S                  
Matinecock Pt    N/A     55 N/A N/A W37G43      N/A                   
Farmingdale    CLOUDY    56  39  53 W20G31    29.30S                  
MacArthur/ISP  PTSUNNY   57  39  51 W25G35    29.27S                  
Stony Brook      N/A     55  39  54 W13G28      N/A                   
Shirley        PTSUNNY   58  39  49 W20G30    29.27S                  
Mt Sinai Harb    N/A    N/A N/A N/A W14G28      N/A                   
Westhampton    PTSUNNY   57  37  47 W18G35    29.26R                  
East Hampton   CLOUDY    56  39  52 W24G36    29.23S                  
Southold         N/A     57  43  58 W12G29      N/A                   
Montauk        NOT AVBL                                               
$$
 

SKY/WX - Weather  TMP - Temperature  DP - Dew Point  RH - Relative Humidity
WIND - Wind Direction/Speed PRES - Barometric Pressure VSB - Visibility
WCI - Wind Chill Index E13G22 Wind - East Wind 13 mph/Gusts of 22 mph